COSMOS 1529

Satellite information

Favourite Embed

Satellite Type and Status

PAYLOADIN ORBIT

Key statistics

Satellite COSMOS 1529 at a glance.

Uptime

15223

Days in orbit

Revolutions

≈ 12.4

Per day

Orbit

LEO

Low Earth Orbit

Inclination

74.0

Latest

Satellite identification and parameters

Extended collection of information and parameters for COSMOS 1529.

Object identification

Identified? True

Debris? False

Object name: COSMOS 1529

International designator: 1984-001H

Object number (NORAD): 14618

Object ID (CCSDS): 14618

Country: COMMONWEALTH OF INDEPENDENT STATES (CIS)

Current information (Y/N): Y

RCS size: MEDIUM

Orbital parameters

Period: 115.675 minutes

Inclination: 74.0095 deg

SMA: 7864.194 km

Apoapsis: 1511.309 km

Periapsis: 1460.808 km

RAAN: 158.4475 deg

Eccentricy: 0.00321082

Argument of periapsis: 323.0935 deg

Mean anomaly: 152.2028 deg

Mean motion: 12.44862666 rev/day

Mean motion (dot): 0.00000005 rev/day2

B* drag term: 0.0001435205 1/REarth

Two-line elements (TLE)

Creation date: Sept. 8, 2025, 9:49 a.m.

Reference frame: TEME

Reference center: EARTH

Epoch: Sept. 8, 2025, 5:03 a.m. UTC

TLE line 0: 0 COSMOS 1529

TLE line 1: 1 14618U 84001H 25251.21103390 .00000005 00000-0 14352-3 0 9990

TLE line 2: 2 14618 74.0095 158.4475 0032108 323.0935 152.2028 12.44862666720464

Live tracking on map

Real-time ground track for satellite COSMOS 1529.

In-orbit conjunctions

A list of the most updated potential collisions computed for object COSMOS 1529.

Target Orbit TCA Probability of collision Miss distance Type
DELTA 1 DEB SSO 2024-06-03 14:22:55 0.0001727037 355.0 (m) DEBRIS

Associated space launch

Military communications satellites

COSMOS 1529 was lifted into orbit during the mission ‘Kosmos-3M | Strela-1M 273-280’, on board a Kosmos-3M space rocket.

The launch took place on Jan. 5, 1984, 8:09 p.m. from 132/2.

For more information about the launch, click the button.

Launch to space Kosmos-3M | Strela-1M 273-280
Kosmos-3M | Strela-1M 273-280

Agency: N/A

Status: Launch Successful

Launch date: Jan. 5, 1984, 8:09 p.m. UTC

Rocket: Kosmos-3M

Launch pad: 132/2

Location: Plesetsk Cosmodrome, Russian Federation

...

Latest news about this satellite

There are no fresh news available about this satellite. Check back as we update our databases every day.


Newsletter sign-up

Weekly statistics, charts and insights to help you stay on top of the space industry.